Location: Carrières
(48.9495°N, 2.0407°E)
Time: 03:15:34
(UTC+00:00)

A-11 Canister half - Visible Passes

Search period start: 22 April 2024 00:00
Search period end: 02 May 2024 00:00
Orbit: 1525 x 1683 km, 47.3° (Epoch: 21 April)

Date Brightness Start Highest point End Pass type
(mag) Time Alt. Az. Time Alt. Az. Time Alt. Az.
22 Apr 10.5 03:52:04 10° S 04:00:02 28° SE 04:08:06 10° E visible
23 Apr 10.5 03:30:35 10° S 03:38:21 27° SE 03:46:14 10° E visible
24 Apr 10.5 03:09:06 10° S 03:16:39 26° SE 03:24:20 10° E visible
25 Apr 10.5 02:47:39 10° S 02:54:59 24° SE 03:02:27 10° E visible
26 Apr 10.5 02:26:15 10° S 02:33:19 23° SE 02:40:31 10° E visible
27 Apr 10.5 02:05:41 12° S 02:11:38 22° SE 02:18:35 10° E visible
28 Apr 10.5 01:45:03 14° SSE 01:49:59 20° SE 01:56:38 10° E visible
28 Apr 9.6 03:43:50 10° SW 03:53:18 53° SSE 04:03:00 10° ENE visible
29 Apr 10.5 01:24:22 15° SSE 01:28:19 19° SE 01:34:39 10° E visible
29 Apr 9.6 03:22:39 12° SW 03:31:34 51° SSE 03:41:12 10° ENE visible
30 Apr 10.5 01:03:38 15° SSE 01:06:40 18° SE 01:12:38 10° E visible
30 Apr 9.6 03:01:54 15° SW 03:09:50 50° SSE 03:19:23 10° ENE visible
01 May 10.5 00:42:51 16° SE 00:45:01 17° SE 00:50:36 10° E visible
01 May 9.6 02:41:07 19° SSW 02:48:06 48° SE 02:57:35 10° ENE visible
